Regional Weather Roundup
Issued by NWS

Home | Current Version | Previous Version | Graphics & Text | Print | Product List | Glossary On
Versions: 1 2 3 4 5 6 7 8 9 10 11 12 13 14 15 16 17 18 19 20 21 22 23 24 25 26 27 28 29 30 31 32 33 34 35 36 37 38 39 40 41 42 43 44 45 46 47 48 49 50
000
ASUS43 KIND 280909
RWRIN

WEATHER ROUNDUP FOR INDIANA
NATIONAL WEATHER SERVICE INDIANAPOLIS IN
400 AM EST WED JAN 28 2015

NOTE: "FAIR" INDICATES FEW OR NO CLOUDS BELOW 12,000 FEET WITH NO
SIGNIFICANT WEATHER AND/OR OBSTRUCTIONS TO VISIBILITY.

* - STATION DOES NOT REPORT WEATHER SUCH AS PRECIPITATION OR FOG.

+ - STATION NOT QUALITY CONTROLLED BY THE NATIONAL WEATHER SERVICE.
    USE DATA WITH CAUTION...ESPECIALLY DEWPOINT AND RELATIVE
    HUMIDITY OBSERVATIONS.

INZ001>003-010>013-019-020-281000-
NORTHWEST INDIANA

CITY           SKY/WX    TMP DP  RH WIND       PRES   REMARKS
GARY /AIRPORT/ PTCLDY    22  14  72 CALM      30.30R
KNOX *+        FAIR      15   7  69 CALM      30.28S
LA PORTE +     PTCLDY    16  12  86 CALM      30.29R
MICHIGAN CITY+ PTCLDY    18  12  79 CALM      30.30R
MONTICELLO +   CLEAR     17  15  95 CALM      30.27F
RENSSELAER +   CLEAR     21  21 100 CALM      30.29R
VALPARAISO     MOCLDY    18  13  80 CALM      30.29R

$$

LMZ046-743>745-281000-
SOUTHERN LAKE MICHIGAN

STATION/POSITION TIME  TEMP WIND        PRES
                       AIR  DIR/SP/G
                 (UTC) (F)  (DEG/KT/KT) (MB)
MICHIGAN CITY    0900   22  130/  5/  6   N/A

$$

INZ004-005-014>016-021>024-281000-
NORTH CENTRAL INDIANA

CITY           SKY/WX    TMP DP  RH WIND       PRES   REMARKS
GOSHEN         MOCLDY    11   6  81 E3        30.29R
LOGANSPORT +   PTCLDY    10   9  92 SE3       30.29S
PERU/GRISSOM   MOCLDY    12   8  85 E3        30.28R
ROCHESTER +    PTCLDY    14  12  92 CALM      30.29S
SOUTH BEND     NOT AVBL
WARSAW +       PTCLDY    10   9  92 CALM      30.29R

$$

INZ006>009-017-018-025>027-281000-
NORTHEAST INDIANA

CITY           SKY/WX    TMP DP  RH WIND       PRES   REMARKS
ANGOLA *+      CLEAR      7   3  85 CALM      30.26R
AUBURN +       PTCLDY     9   3  78 CALM      30.30R
FORT WAYNE     PTCLDY     7   4  87 W3        30.30R
HUNTINGTON +   PTCLDY     8   2  77 CALM      30.29S

$$

INZ028-029-035-036-043>045-051>053-281000-
WEST CENTRAL INDIANA

CITY           SKY/WX    TMP DP  RH WIND       PRES   REMARKS
CRAWFORDSVL +  FAIR      16  11  82 CALM      30.29R
GREENCASTLE +  CLEAR     16  10  79 CALM      30.28S
LAFAYETTE      PTCLDY    16  13  88 CALM      30.29S
TERRE HAUTE    PTCLDY    19  15  84 CALM      30.30R

$$

INZ030>032-037>040-046>048-054>057-064-065-281000-
CENTRAL INDIANA

CITY           SKY/WX    TMP DP  RH WIND       PRES   REMARKS
CP ATTERBURY + CLEAR     14  12  92 CALM      30.30S
INDIANAPOLIS   CLEAR     17  13  84 CALM      30.28R
-EAGLE CREEK   CLEAR     16  13  88 CALM      30.28R
KOKOMO *+      PTCLDY    12   9  85 CALM      30.29R
MARION +       PTCLDY    12   9  89 CALM      30.30R
MT COMFORT *+  PTCLDY    18  16  93 S3        30.29R
SHELBYVILLE    PTCLDY    17  12  80 E3        30.29R HAZE
ZIONSVILLE +   CLEAR     18  14  86 CALM      30.28S

$$

INZ033-034-041-042-049-050-058-059-281000-
EAST CENTRAL INDIANA

CITY           SKY/WX    TMP DP  RH WIND       PRES   REMARKS
MUNCIE         PTCLDY    11   7  84 CALM      30.28R FOG

$$

INZ060-061-067>069-081>083-085>088-281000-
SOUTHWEST INDIANA

CITY           SKY/WX    TMP DP  RH WIND       PRES   REMARKS
EVANSVILLE     CLOUDY    32  23  69 E6        30.30R WCI  26
HUNTINGBURG *+ PTCLDY    27  18  69 E5        30.29S WCI  21
WASHINGTON +   CLEAR     25  18  74 CALM      30.30R

$$

INZ062-063-066-070>080-084-089>092-281000-
SOUTH CENTRAL AND SOUTHEAST INDIANA

CITY           SKY/WX    TMP DP  RH WIND       PRES   REMARKS
BLOOMINGTON    CLEAR     16  13  88 CALM      30.27S

$$



USA.gov is the U.S. government's official web portal to all federal, state and local government web resources and services.